Погода в Биме

Индонезия     8°26′55″S   118°43′29″E
темп.,
°C
ветер,
м/с
пор.,
м/с
влажн.,
%
обл.,
%
осадки,
мм/ч
давл.,
гПа
погр.,
м
2 марта, вт
вт223:00+22св019421 0.6 101223
02:00+22в009413 0.6 101023
05:00+22с01948 0.1 100923
08:00+25св12894 0.1 1011205
11:00+28с23790 0.9 1011683
14:00+28с34803 5.9 1008684
17:00+26ссв23867 3.8 1008456
20:00+23ссв129526 6.1 101026
3 марта, ср
ср323:00+22св119430 0.3 101224
02:00+22ссв119426 0.3 100925
05:00+22всв11953 0.0 101023
08:00+25ююз00881 0.1 1011138
11:00+30ссз116422 0.5 10111001
14:00+28с338031 2.9 1008638
17:00+26с128744 5.9 1008275
20:00+23св119461 7.4 101124
4 марта, чт
чт423:00+22ююв009478 0.1 101224
02:00+22зюз019486 0.1 101023
05:00+22ссз0093100 0.0 101024
08:00+25с018999 0.0 1011164
11:00+30зсз1167100 0.0 1011943
14:00+31зюз246182 0.5 10091559
17:00+27ююз1288100 4.2 1008516
20:00+23ююв1191100 6.4 101123
5 марта, пт
пт523:00+22ююв0190100 0.0 101123
02:00+22ссз0090100 0.0 100923
05:00+22с019198 0.0 100924
08:00+25с118999 0.0 1011137
11:00+27с128295 2.3 1011482
14:00+27с228497 8.5 1009539
17:00+26с0187100 7.2 1008426
20:00+23ю1195100 7.6 101024
6 марта, сб
сб623:00+22ю1195100 0.2 101123
02:00+22ю119587 0.2 100923
05:00+22всв009482 0.0 100923
08:00+25ссв118944 0.0 1011200
11:00+28с23726 0.1 1011886
14:00+28с457113 2.4 1008831
17:00+27с24801 0.8 1008639
20:00+23ссв11924 1.2 101124